ZHONGXING-6B

Last updated on Fri Jul 11 2025 00:02:42 GMT+0000 (Coordinated Universal Time)

1 31800U 07031A 25191.65128628 -.00000348 00000+0 00000+0 0 9993 2 31800 1.5125 85.8259 0002057 38.5539 152.2516 1.00267147 66004
UTC large
Height (km)
Speed (km/s)
/
Latitude / Longitude
Inclination (degrees)
Orbital Period (minutes)
Azimuth
Elevation
Range (km)
Doppler Factor

Next 0 passes for location: London (51.5072 / 0.1276)

Sorry there are no passes over London.